Location: Quail Creek Observatory
(32.9410°N, 97.1240°W)
Time: 07:06:11
(UTC-05:00)

Daily predictions for brighter satellites

Satellite Brightness Start Highest point End
(mag) Time Altitude Azimuth Time Altitude Azimuth Time Altitude Azimuth
Cosmos 2227 Rocket 3.9 20:24:55 10° NNE 20:28:16 16° ENE 20:31:36 10° E
ALOS 3.0 20:27:15 10° SE 20:31:28 34° ENE 20:35:40 10° N
Meteor 1-19 Rocket 4.2 20:26:08 10° N 20:31:46 66° E 20:37:17 10° SSE
FENGYUN 3A 4.3 20:27:20 10° SE 20:32:11 37° ENE 20:37:03 10° N
HJ-1C 3.5 20:33:42 10° S 20:36:58 75° W 20:40:15 10° NNW
Meteor 2-21 4.5 20:32:36 10° S 20:38:47 77° E 20:44:58 10° N
Helios 1B rocket 3.7 20:35:48 10° N 20:39:46 46° WNW 20:43:41 10° SSW
Cosmos 2297 Rocket 3.9 20:40:55 10° NNE 20:44:07 15° ENE 20:47:09 10° E
Meteor 1-11 Rocket 4.5 20:40:46 10° SSW 20:46:17 57° W 20:51:44 10° N
Cosmos 2208 Rocket 4.1 20:42:56 10° S 20:48:04 54° ESE 20:53:17 10° NNE
Helios 1A 3.7 20:44:52 10° S 20:48:57 57° W 20:53:04 10° NNW
Resurs 1-3 3.9 20:49:00 10° S 20:53:22 72° WSW 20:57:45 10° NNW
Cosmos 1892 Rocket 3.7 20:50:50 10° N 20:55:15 57° E 20:59:39 10° SSE
Cosmos 1455 Rocket 3.1 20:52:44 10° S 20:56:57 57° E 21:01:13 10° NNE
Okean 2 3.6 20:52:55 10° N 20:56:58 48° E 21:00:58 10° SSE
BREEZE-M DEB (TANK) 3.7 20:54:06 10° SW 20:57:23 82° NW 21:07:37 10° NE
Meteor 2-14 Rocket 4.4 20:51:44 10° S 20:57:51 79° E 21:04:02 10° N
Cosmos 1975 4.0 20:55:16 13° SE 20:58:03 24° E 21:01:24 10° NE
Meteor 2-15 4.5 20:52:42 10° N 20:58:41 57° E 21:04:36 10° SSE
Cosmos 1025 Rocket 3.3 20:56:09 10° N 21:00:30 71° W 21:04:48 10° S
NOSS 7 (D) 4.4 20:57:16 10° SSW 21:00:58 90° S 21:04:19 10° NNE
NOSS 3-4 (A) 4.2 20:58:49 10° NNW 21:05:37 47° NE 21:10:47 19° ESE
NOSS 3-4 (C) 4.2 20:58:57 10° NNW 21:05:44 46° NE 21:10:52 19° ESE
Cosmos 2219 3.7 21:00:50 10° NNW 21:06:21 60° WSW 21:11:52 10° S
Cosmos 1570 Rocket 4.0 21:01:13 10° SSW 21:06:32 88° WNW 21:11:50 10° NNE
EO 1 Delta rocket 3.9 21:02:36 10° NNE 21:07:19 78° E 21:12:47 10° S
Resurs 01 Rocket 3.3 21:04:09 10° SSW 21:08:09 35° W 21:12:13 10° NNW
Lacrosse 5 rocket 3.4 21:11:17 10° NNE 21:12:21 11° NE 21:13:22 10° NE
Cosmos 1461 4.2 21:09:37 10° N 21:12:48 22° NE 21:13:43 20° ENE
Envisat 4.2 21:11:14 21° E 21:12:52 24° ENE 21:16:54 10° NNE
Tiangong 1 3.8 21:12:00 10° NW 21:13:59 16° N 21:15:58 10° NNE
CZ-4 DEB 3.8 21:14:53 27° ENE 21:14:53 27° ENE 21:17:34 10° NNE
Cosmos 1934 Rocket 4.1 21:09:36 10° S 21:15:41 78° W 21:21:54 10° N
Meteor 1-12 Rocket 4.3 21:11:11 10° S 21:16:43 57° E 21:22:22 10° NNE
USA 186 1.6 21:15:37 19° S 21:17:47 88° WSW 21:20:51 10° N
Meteor 2-4 Rocket 4.3 21:12:46 10° NNW 21:18:34 65° W 21:24:25 10° S
Cosmos 2278 3.8 21:13:58 10° SSW 21:19:38 84° WNW 21:25:21 10° NNE
Cosmos 1697 Rocket 3.3 21:15:00 10° SSE 21:19:54 32° ESE 21:24:50 10° NE
Orbus 7S 3.9 21:15:20 10° WSW 21:20:42 37° S 21:21:38 30° SSE
OTV 4 1.9 21:20:18 10° WNW 21:22:59 30° N 21:23:53 25° NE
H-2A R/B 3.1 21:19:18 10° S 21:23:06 67° W 21:26:59 10° NNW
DELTA 2 R/B (1) 4.5 21:20:45 10° WNW 21:26:01 42° N 21:29:48 18° ENE
Cosmos 1939 Rocket 3.6 21:28:30 33° E 21:28:50 34° ENE 21:32:35 10° N
Delta 2 Rocket 4.0 21:26:56 10° WNW 21:32:30 74° N 21:34:44 34° E
Cosmos 2369 3.9 21:26:56 10° SSW 21:32:34 73° WNW 21:38:16 10° NNE
Iridium 4 Rocket 3.3 21:32:43 10° N 21:37:45 61° E 21:39:24 38° SSE
SJ-11-01 4.2 21:36:23 37° SE 21:38:08 65° ENE 21:42:47 10° N
OAO 2 Rocket 3.2 21:35:47 10° WSW 21:40:50 88° NNW 21:42:57 36° ENE
Cosmos 1980 Rocket 3.7 21:44:08 20° ENE 21:44:08 20° ENE 21:46:21 10° NE
Hubble Space Telescope 1.8 21:44:06 10° WSW 21:47:42 32° SSW 21:47:42 32° SSW
Chunghua 1 4.5 21:44:00 10° WSW 21:47:50 79° S 21:47:50 79° S
ERS-1 Rocket 2.8 21:47:32 42° SSE 21:49:15 78° ENE 21:54:17 10° N
SL-24 R/B - RUBIN 2 4.3 21:48:37 10° SSW 21:54:15 85° WNW 22:00:37 10° NNE
Cosmos 1898 Rocket 4.1 21:50:03 10° N 21:54:53 38° ENE 21:54:53 38° ENE
Cosmos 1346 Rocket 4.2 21:51:33 10° NNW 21:55:12 36° W 21:57:27 19° SSW
Cosmos 2173 Rocket 4.1 21:53:55 40° SE 21:55:56 57° E 22:02:08 10° NNE
Cosmos 2061 Rocket 3.9 22:00:39 44° SSE 22:02:34 64° E 22:08:47 10° NNE
Cosmos 2100 Rocket 3.9 22:02:00 36° S 22:04:43 75° E 22:10:58 10° N
Cosmos 1500 3.9 22:09:17 50° NW 22:09:17 50° NW 22:12:21 10° N
Cosmos 468 Rocket 3.9 22:09:27 32° SSW 22:11:50 79° WNW 22:16:59 10° NNE
Cosmos 2227 Rocket 2.5 22:07:10 10° NNW 22:12:45 63° WSW 22:14:15 46° SSW
Centaur D-1A AC-32 4.0 22:10:33 10° WSW 22:11:42 17° SW 22:11:42 17° SW
Cosmos 1814 Rocket 4.0 22:17:57 61° SSW 22:18:53 83° WNW 22:24:14 10° NNE
CZ-3 Stage 3 4.1 21:11:04 10° W 22:19:21 66° SSW 22:21:57 47° SSE
Cosmos 1656 4.5 22:15:13 10° SW 22:20:40 50° WNW 22:26:05 10° N
Milstar 3 Cent rocket 3.8 22:02:58 10° W 22:22:56 72° S 22:26:27 48° ESE
H-2A R/B 3.1 22:26:32 40° NNW 22:26:32 40° NNW 22:29:15 10° NNW
Cosmos 2082 4.3 22:19:58 10° NNW 22:25:23 51° WSW 22:26:27 45° SW
Cosmos 2297 Rocket 2.3 22:23:00 10° NNW 22:28:37 65° WSW 22:28:59 64° SW
Cosmos 972 Rocket 4.4 22:24:35 10° N 22:30:26 72° ENE 22:30:26 72° ENE
USA 215 4.4 22:29:23 27° NE 22:30:37 29° NNE 22:36:03 10° NNW
SPOT 5 3.2 22:31:47 65° NNW 22:31:47 65° NNW 22:36:00 10° NNW
Lacrosse 5 3.4 22:27:28 10° NNW 22:30:48 25° NNE 22:30:48 25° NNE
BREEZE-M TANK 3.9 22:33:38 10° NW 22:38:57 38° NNW 22:38:57 38° NNW
H-2A R/B 4.0 22:50:51 18° NNE 22:50:51 18° NNE 22:52:24 10° N
Envisat 4.4 22:51:26 31° WSW 22:51:40 31° W 22:56:09 10° NW
Lacrosse 5 rocket 4.0 22:48:21 10° NW 22:49:06 15° NW 22:49:06 15° NW
Cosmos 2098 Rocket 4.2 22:55:17 75° N 22:55:17 75° N 23:01:07 10° N
Cosmos 1697 Rocket 4.4 22:58:55 10° WSW 23:03:47 29° WNW 23:08:39 10° N
Terra 4.3 23:19:08 16° N 23:19:08 16° N 23:20:04 10° N
Cosmos 1980 Rocket 3.7 23:25:47 32° NW 23:25:47 32° NW 23:30:27 10° N
